SANTA FE DAM CA US current weather conditions

sailwx.info

Wind from 218 at 7 knots gusting 13

Air temperature 31.7° C
Dewpoint 15.6° C

Last reported at 2014-Jul-31 01:57 UTC.
Time now 2014-Jul-31 03:21 UTC

Location: N 34°08' W 117°57'.
View on Google Maps.

See reports from other nearby stations

  
Tides and Currents Weather Stations Pressure Air Temp Water Temp Dewpoint Dewpoint Depression Visibility Wind Speed Wind Dir Waves Ship Positions
date/time (UTC)wind fromknots sea level pressurealtimeterstation pressurevisibilityair tempwater tempwave heightnotes
2014-Jul-31 01:57 218 7 gusting 13 31.7
2014-Jul-31 00:57 243 7 gusting 14 34.4
2014-Jul-30 23:57 229 7 gusting 13 35.0
2014-Jul-30 22:57 232 6 gusting 16 36.7
2014-Jul-30 21:57 220 7 gusting 16 37.2
2014-Jul-30 20:57 208 7 gusting 14 36.7
2014-Jul-30 19:57 223 6 gusting 13 35.6
2014-Jul-30 18:57 227 5 gusting 10 33.9
2014-Jul-30 17:57 171 4 gusting 9 32.2
2014-Jul-30 16:57 161 2 gusting 7 30.0
2014-Jul-30 15:57 253 3 gusting 7 26.7
2014-Jul-30 14:57 013 0 gusting 4 25.6
2014-Jul-30 13:57 157 0 gusting 2 21.7
2014-Jul-30 12:57 19.4
2014-Jul-30 11:57 155 0 gusting 2 18.9
2014-Jul-30 10:57 280 1 gusting 3 20.0
2014-Jul-30 09:57 294 1 gusting 3 20.6
2014-Jul-30 08:57 254 2 gusting 4 21.1
2014-Jul-30 07:57 244 2 gusting 5 20.6
2014-Jul-30 06:57 247 2 gusting 4 21.7
2014-Jul-30 05:57 147 0 gusting 3 22.8
2014-Jul-30 04:57 227 2 gusting 4 23.3
2014-Jul-30 03:57 200 3 gusting 4 23.9
2014-Jul-30 02:57 220 3 gusting 13 26.1
2014-Jul-30 01:57 219 6 gusting 13 30.6
2014-Jul-30 00:57 232 9 gusting 17 31.7
2014-Jul-29 23:57 221 7 gusting 13 35.6
2014-Jul-29 22:57 214 6 gusting 12 34.4
2014-Jul-29 21:57 257 5 gusting 13 35.6
2014-Jul-29 20:57 236 6 gusting 11 36.1
2014-Jul-29 19:57 235 4 gusting 11 35.0
2014-Jul-29 18:57 276 4 gusting 9 33.3
2014-Jul-29 17:57 247 4 gusting 9 32.8
2014-Jul-29 16:57 213 2 gusting 10 31.7
2014-Jul-29 15:57 260 2 gusting 5 28.9
2014-Jul-29 14:57 225 2 gusting 5 26.1
2014-Jul-29 13:57 119 0 gusting 2 20.6
2014-Jul-29 12:57 172 1 gusting 4 19.4
2014-Jul-29 11:57 090 1 gusting 3 18.9
2014-Jul-29 10:57 303 2 gusting 3 19.4
2014-Jul-29 09:57 103 1 gusting 3 20.6
2014-Jul-29 08:57 103 0 gusting 1 20.6
2014-Jul-29 07:57 221 2 gusting 4 21.1
2014-Jul-29 06:57 219 1 gusting 5 20.6
2014-Jul-29 05:57 192 4 gusting 5 22.2
2014-Jul-29 04:57 165 3 gusting 35 22.8
2014-Jul-29 03:57 224 3 gusting 7 25.0